SCP
0 0 0 0 0 0 0 0 0 0 0 0 0 0 0 0 0 0 0 0 0 0 0 0 0 0 0 0 0 0 0 0 0 0 0 0 0 0 0 0 0 0 0
0 0 0 0 0 0 0 0 0 0 0 0 0 0 0 0 0 0 0 0 0 0 0 0 0 0 0 0 0 0 0 0 0 0 0 0 0 0 0 0 0 0 0
0 0 0 0 0 0 0 0 0 0 0 0 0 0 0 0 0 0 0 0 0 0 0 0 0 0 0 0 0 0 0 0 0 0 0 0 0 0 0 0 0 0 0
0 0 0 0 0 0 0 0 0 0 0 0 0 0 0 0 0 0 0 0 0 0 0 0 0 0 0 0 0 0 0 0 0 0 0 0 0 0 0 0 0 0 0
0 0 0 0 0 0 0 0 0 0 0 0 0 0 0 0 0 0 0 0 0 0 0 0 0 0 0 0 0 0 0 0 0 0 0 0 0 0 0 0 0 0 0
0 0 0 0 0 0 0 0 0 0 0 0 0 0 0 0 0 0 0 0 0 0 0 0 0 0 0 0 0 0 0 0 0 0 0 0 0 0 0 0 0 0 0
0 0 0 0 0 0 0 0 0 0 0 0 0 0 0 0 0 0 0 0 0 0 0 0 0 0 0 0 0 0 0 0 0 0 0 0 0 0 0 0 0 0 0
0 0 0 0 0 0 0 0 0 0 0 0 0 0 0 0 0 0 0 0 0 0 0 0 0 0 0 0 0 0 0 0 0 0 0 0 0 0 0 0 0 0 0
0 0 0 0 0 0 0 0 0 0 0 0 0 0 0 0 0 0 0 0 0 0 0 0 0 0 0 0 0 0 0 0 0 0 0 0 0 0 0 0 0 0 0
0 0 0 0 0 0 0 0 0 0 0 0 0 0 0 0 0 0 0 0 0 0 0 0 0 0 0 0 0 0 0 0 0 0 0 0 0 0 0 0 0 0 0
0 0 0 0 0 0 0 0 0 0 0 0 0 0 0 0 0 0 0 0 0 0 0 0 0 0 0 0 0 0 0 0 0 0 0 0 0 0 0 0 0 0 0
0 0 0 0 0 0 0 0 0 0 0 0 0 0 0 0 0 0 0 0 0 0 0 0 0 0 0 0 0 0 0 0 0 0 0 0 0 0 0 0 0 0 0
0 0 0 0 0 0 0 0 0 0 0 0 0 0 0 0 0 0 0 0 0 0 0 0 0 0 0 0 0 0 0 0 0 0 0 0 0 0 0 0 0 0 0
0 0 0 0 0 0 0 0 0 0 0 0 0 0 0 0 0 0 0 0 0 0 0 0 0 0 0 0 0 0 0 0 0 0 0 0 0 0 0 0 0 0 0
0 0 0 0 0 0 0 0 0 0 0 0 0 0 0 0 0 0 0 0 0 0 0 0 0 0 0 0 0 0 0 0 0 0 0 0 0 0 0 0 0 0 0
0 0 0 0 0 0 0 0 0 0 0 0 0 0 0 0 0 0 0 0 0 0 0 0 0 0 0 0 0 0 0 0 0 0 0 0 0 0 0 0 0 0 0
0 0 0 0 0 0 0 0 0 0 0 0 0 0 0 0 0 0 0 0 0 0 0 0 0 0 0 0 0 0 0 0 0 0 0 0 0 0 0 0 0 0 0
0 0 0 0 0 0 0 0 0 0 0 0 0 0 0 0 0 0 0 0 0 0 0 0 0 0 0 0 0 0 0 0 0 0 0 0 0 0 0 0 0 0 0
0 0 0 0 0 0 0 0 0 0 0 0 0 0 0 0 0 0 0 0 0 0 0 0 0 0 0 0 0 0 0 0 0 0 0 0 0 0 0 0 0 0 0
0 0 0 0 0 0 0 0 0 0 0 0 0 0 0 0 0 0 0 0 0 0 0 0 0 0 0 0 0 0 0 0 0 0 0 0 0 0 0 0 0 0 0
0 0 0 0 0 0 0 0 0 0 0 0 0 0 0 0 0 0 0 0 0 0 0 0 0 0 0 0 0 0 0 0 0 0 0 0 0 0 0 0 0 0 0
0 0 0 0 0 0 0 0 0 0 0 0 0 0 0 0 0 0 0 0 0 0 0 0 0 0 0 0 0 0 0 0 0 0 0 0 0 0 0 0 0 0 0
0 0 0 0 0 0 0 0 0 0 0 0 0 0 0 0 0 0 0 0 0 0 0 0 0 0 0 0 0 0 0 0 0 0 0 0 0 0 0 0 0 0 0
0 0 0 0 0 0 0 0 0 0 0 0 0 0 0 0 0 0 0 0 0 0 0 0 0 0 0 0 0 0 0 0 0 0 0 0 0 0 0 0 0 0 0
0 0 0 0 0 0 0 0 0 0 0 0 0 0 0 0 0 0 0 0 0 0 0 0 0 0 0 0 0 0 0 0 0 0 0 0 0 0 0 0 0 0 0
0 0 0 0 0 0 0 0 0 0 0 0 0 0 0 0 0 0 0 0 0 0 0 0 0 0 0 0 0 0 0 0 0 0 0 0 0 0 0 0 0 0 0
Wind_Speed
4 3 2 1 1 1 2 3 3 3 4 4 5 4 5 6 6 5 6 7 7 7 7 8 10 10 8 7 7 7 8 8 10 10 9 9 11 11 9 8 8 8 7
2 1 2 1 1 1 3 4 4 4 5 5 5 5 6 7 7 7 9 8 7 8 9 9 11 9 11 9 8 9 8 8 7 10 9 8 10 10 9 9 9 7 5
0 2 2 2 2 3 5 5 5 5 6 7 6 6 7 7 7 8 9 8 7 7 8 10 12 12 12 10 11 10 8 7 7 8 9 7 7 7 9 10 9 5 3
1 2 3 4 5 6 6 6 6 6 7 8 8 8 7 6 7 7 6 5 5 7 9 11 12 13 13 13 11 10 8 7 7 8 9 9 9 9 7 8 6 3 2
2 3 4 5 5 6 6 6 6 7 8 8 8 8 6 5 4 3 2 4 6 9 10 12 12 17 19 14 10 8 7 7 7 8 10 10 10 8 7 5 5 2 2
3 4 4 5 6 7 7 6 6 8 8 8 8 6 5 3 5 8 7 4 7 10 12 12 13 14 15 16 17 15 14 11 10 11 11 12 13 10 7 5 3 3 3
4 5 5 5 7 8 8 7 7 7 6 6 5 5 4 2 5 9 15 9 10 11 12 12 11 12 15 11 14 17 16 19 19 15 15 15 14 10 7 6 5 3 2
4 5 6 6 6 6 6 7 7 6 5 5 6 6 4 6 10 12 18 11 11 12 12 12 12 13 12 12 12 13 14 14 15 12 13 14 13 8 6 4 5 5 4
4 5 6 6 5 6 8 8 6 5 6 5 5 6 7 8 13 15 17 10 10 13 12 11 12 11 14 16 13 12 14 13 13 14 12 6 5 5 7 6 6 4 2
5 5 5 5 7 7 7 5 5 4 5 6 6 7 7 8 13 15 17 8 10 11 11 11 14 13 14 15 11 10 12 12 11 9 5 8 9 9 9 5 4 3 2
3 5 7 7 7 6 5 4 5 5 6 7 8 8 8 9 11 14 17 9 9 10 9 9 8 13 14 14 11 9 11 12 8 3 4 6 7 7 7 6 5 3 2
5 6 6 6 5 4 5 5 5 6 6 7 8 8 7 8 10 13 18 16 14 10 9 8 8 14 14 13 9 10 13 8 2 2 5 6 7 7 7 7 8 7 7
6 6 6 6 5 4 4 4 4 4 5 7 7 8 9 8 10 15 15 16 18 11 9 15 17 15 12 8 10 13 8 2 3 5 7 7 7 7 6 6 7 8 10
6 5 5 5 5 5 4 3 4 5 6 8 8 8 8 9 9 10 10 10 13 11 10 13 15 11 9 9 9 7 4 5 6 7 8 7 6 6 6 5 6 7 8
6 5 4 4 5 5 5 4 4 3 4 6 7 6 7 8 12 17 12 10 10 11 11 7 5 6 7 7 7 6 5 6 7 7 7 7 6 7 7 6 6 7 7
6 4 4 4 4 5 5 6 7 5 5 7 8 8 7 9 16 17 18 18 17 17 9 6 7 8 8 8 7 6 7 7 7 7 7 7 7 7 7 7 7 7 7
7 5 4 5 5 5 5 5 6 6 6 6 9 11 12 14 15 17 18 17 13 13 7 7 7 7 7 8 7 7 8 8 8 7 7 7 7 6 6 7 7 7 7
7 6 5 5 5 5 5 5 5 6 6 6 8 11 14 16 15 16 17 12 10 9 8 8 7 7 7 7 7 7 7 8 8 7 7 7 7 6 7 8 7 7 7
6 4 4 4 4 4 5 5 5 6 6 6 7 9 13 14 12 14 12 8 8 9 8 7 7 7 6 7 7 7 7 7 7 6 7 7 6 6 7 7 7 9 8
5 7 6 4 4 5 5 6 6 6 6 7 7 8 9 9 8 10 8 9 9 9 9 8 8 8 7 7 6 6 6 6 6 7 7 6 5 5 6 7 7 7 8
4 4 7 5 4 4 5 5 6 6 7 7 7 9 13 8 8 9 9 9 9 9 9 8 8 8 7 6 5 6 6 6 6 6 5 4 4 4 4 5 6 7 7
4 3 3 3 3 4 5 5 6 6 7 8 7 8 13 8 8 8 9 9 9 9 9 8 7 7 7 6 6 5 5 6 5 5 5 4 4 4 4 5 6 6 7
4 4 4 4 4 6 6 6 6 7 7 8 8 8 8 8 8 9 9 9 9 9 9 9 8 8 8 7 6 5 5 5 4 5 4 4 4 4 4 6 8 7 7
4 3 4 4 4 5 6 6 7 7 7 7 8 8 8 8 9 10 9 9 9 9 9 9 9 11 14 9 6 5 5 5 4 4 5 5 5 5 5 6 7 8 8
3 3 3 3 3 4 5 6 6 7 7 7 7 7 8 8 9 9 9 9 10 10 12 11 9 10 13 13 10 7 6 7 7 5 5 5 6 6 6 7 7 7 7
4 4 3 3 3 4 4 5 5 6 6 7 7 7 8 8 8 9 9 10 10 10 11 10 13 14 15 12 12 9 7 6 7 6 4 4 5 5 6 6 8 7 8
Wind_Direction
147 135 140 177 203 281 294 289 292 298 303 291 273 273 277 269 260 255 259 264 265 278 290 297 302 305 298 287 273 263 257 256 270 280 278 282 285 282 288 294 295 291 289
133 170 217 229 252 273 276 275 275 278 282 279 278 275 274 269 259 251 259 264 264 278 291 298 299 302 299 293 280 271 266 254 259 277 281 281 278 277 281 286 285 280 268
135 265 280 290 283 272 273 277 280 275 278 277 267 261 266 269 269 264 263 269 270 277 289 294 293 294 293 289 284 280 274 265 258 276 286 285 280 274 278 276 269 253 235
238 268 277 273 266 264 266 270 271 265 266 271 268 265 270 280 283 283 281 275 282 292 295 293 290 287 285 284 283 281 282 283 284 287 289 288 280 274 262 266 262 212 198
255 266 264 265 265 265 268 269 270 267 267 269 275 281 291 299 307 333 335 314 307 306 303 299 295 294 288 286 290 295 300 293 290 287 286 285 280 271 256 247 247 171 169
255 259 268 279 284 285 285 285 285 284 285 286 282 290 311 345 36 20 353 318 311 309 306 305 304 300 300 303 306 307 300 291 287 282 280 276 275 268 253 235 194 163 190
273 283 288 289 290 291 297 303 302 301 312 322 336 352 357 351 2 352 340 332 316 310 304 303 304 304 306 296 298 302 295 284 280 278 273 269 268 261 236 213 186 171 153
294 298 300 303 303 316 337 351 359 8 16 16 17 12 353 327 332 335 338 332 318 308 303 299 296 296 295 294 297 295 290 287 285 280 267 263 259 248 214 182 142 117 100
308 312 320 333 353 22 36 36 34 34 26 14 4 4 357 342 339 337 340 325 314 309 306 301 296 293 293 296 299 296 295 297 301 299 300 282 238 171 137 126 134 134 128
323 331 2 42 63 64 55 42 27 25 14 1 359 356 352 343 335 332 332 319 311 310 308 303 299 296 298 304 303 297 297 305 314 323 8 55 72 84 85 96 118 119 118
358 58 69 70 72 67 56 42 28 19 7 358 352 346 338 326 322 322 326 324 310 306 304 304 303 305 309 308 302 291 289 297 302 325 59 67 67 68 69 69 68 82 105
82 82 72 61 61 61 54 39 27 17 5 355 352 349 336 324 323 326 327 326 323 312 311 311 311 317 317 312 307 303 304 300 299 68 75 69 69 68 69 74 75 73 76
90 82 69 56 43 35 34 20 3 356 354 350 355 353 344 339 336 335 333 332 335 333 322 325 328 328 328 326 326 327 329 10 77 84 80 75 71 74 78 83 85 81 75
95 79 57 40 24 14 6 355 346 346 351 355 355 349 341 338 344 346 343 340 339 339 331 326 328 331 339 338 338 347 24 63 82 87 88 86 81 75 72 69 80 85 87
90 75 49 33 20 7 0 349 351 351 8 4 356 343 337 339 339 338 342 342 343 338 329 330 350 359 0 356 359 17 44 64 74 80 87 88 80 75 69 59 76 89 89
91 67 44 30 21 16 8 3 3 8 2 7 358 347 328 325 329 336 341 341 340 340 342 353 11 14 9 4 9 28 52 63 67 70 75 78 81 81 74 71 80 82 75
90 72 47 34 26 17 13 7 356 348 351 354 343 339 340 338 339 342 344 339 344 350 355 1 12 17 14 11 18 37 59 65 67 68 71 75 80 78 74 83 85 74 69
82 68 56 39 29 18 8 357 349 350 353 352 347 344 346 345 344 346 345 348 360 3 2 6 12 16 18 19 24 37 54 63 68 71 74 74 73 72 73 81 83 85 79
82 65 53 43 28 13 3 359 357 358 359 358 359 356 351 347 347 353 355 4 1 1 2 7 11 15 21 26 28 36 52 66 71 75 83 86 75 68 73 80 84 83 84
81 77 65 45 27 16 10 8 6 6 6 7 10 6 354 356 6 5 6 7 6 5 5 7 10 16 22 27 32 39 51 59 59 72 91 88 77 72 77 79 84 89 89
86 64 55 44 24 8 2 7 10 12 11 8 7 3 2 5 7 5 8 8 6 3 4 6 8 9 13 16 24 37 47 54 61 76 83 72 70 81 91 91 91 94 97
91 69 48 33 16 11 6 6 12 15 13 11 5 3 6 11 9 6 5 5 4 3 3 5 8 7 4 4 10 27 46 58 66 72 68 60 63 82 99 102 101 100 100
94 74 55 44 38 29 25 19 18 17 14 11 7 6 6 7 6 6 3 1 3 3 4 6 7 7 5 4 9 18 35 47 63 78 75 65 66 85 104 109 112 110 105
100 84 69 56 45 37 32 27 23 19 15 11 9 8 4 1 2 3 1 358 359 1 4 5 7 8 11 11 7 9 16 22 41 58 70 73 73 84 101 106 108 110 104
104 90 73 56 42 40 40 36 30 25 19 14 11 10 7 4 2 0 358 357 359 2 4 6 5 6 8 13 16 14 20 39 44 43 53 58 66 77 100 113 111 112 111
94 86 74 65 61 54 46 37 31 27 21 14 11 11 11 8 3 0 358 359 358 359 3 5 4 9 11 12 11 13 28 43 47 38 35 48 59 75 94 113 119 116 119